彩虹-1 5星 (RADUGA-1 5)

导读 | 星芒AI

RADUGA-1 5 是一颗由俄罗斯研制并发射的军用通信卫星,属于 RADUGA 系列,旨在为俄罗斯军队提供安全、稳定的战术通信能力。该卫星具备抗干扰和加密通信功能,支持多种通信模式,可满足战场环境下的信息传输需求。其发射增强了俄罗斯在空间通信领域的自主性和战略能力,提升了军事指挥与控制系统的效率。RADUGA-1 5 的部署体现了俄罗斯在发展军事卫星通信系统方面的持续投入与技术进步。

基本信息
目录编号:
26477
目录名称:
RADUGA 1-5
国际标识:
2000-049A
轨道中心:
EARTH
卫星名称:
彩虹-1 5星
卫星全名:
彩虹-1 5星 (RADUGA-1 5)
卫星状态:
在轨 (已飞行9178 天)
发射日期:
2000-08-28 UTC
国别 :
俄罗斯(独联体) (CIS)
星等 :
--
轨道信息
数据来源 国际轨道数据 AOE轨道数据
星历时间 2025-10-14T01:46:57+0800
20小时前
查看轨道信息
2025-10-11T01:00:00+0800
3天前
查看轨道信息
半长轴 42153.771km 42153.406km
偏心率 0.0001774 0.0001378
轨道倾角 13.828° 13.827°
近地点辐角 143.376° 141.217°
升交点赤经 9.878° 9.902°
平近点角 236.105° 223.089°
近地点 35768.157km 35769.462km
远地点 35783.115km 35781.08km
周期 1435.537分钟 1435.518分钟
每日圈数 1.003109 1.003122
详细信息
平衡模式:
三轴稳定
覆盖范围:
全球
运营商:
俄罗斯国家航天集团
运营商所在国:
俄罗斯
制造商(研发单位):
普里克拉德诺伊·梅哈尼基设计局
制造商所在国:
俄罗斯联邦
使用方式:
暂无
卫星简介
彩虹卫星(Raduga, Gran)是苏联用于军事和通信目的的一系列地球静止通信卫星。彩虹卫星旨在支持军事通信、Orbita地面电视网络,并在整个东半球(极地地区除外)提供电话和电报通信。该卫星已退役。
2D轨道图
3D轨道图
轨道高度分析图
轨道倾角分析图
轨道综合分析图
查看轨道综合分析图